Orbital Elements at Epoch 2459000.5 (2020-May-31.0) TDB
Reference: JPL 13 (heliocentric ecliptic J2000)
Element | Value | Uncertainty (1-sigma) | Units |
e | .2346736027818538 | 5.6669e-08 | |
a | 2.710863188453637 | 1.8933e-08 | au |
q | 2.074695157370519 | 1.6203e-07 | au |
i | 8.455564860818669 | 5.7429e-06 | deg |
node | 86.73004988083413 | 4.0492e-05 | deg |
peri | 55.02480404224896 | 4.3444e-05 | deg |
M | 335.0119348590943 | 1.4871e-05 | deg |
tp | 2459113.659222765688 (2020-Sep-21.15922277) | 6.7878e-05 | TDB |
period | 1630.27109005572 4.46 | 1.7079e-05 4.676e-08 | d yr |
n | .2208221701261327 | 2.3134e-09 | deg/d |
Q | 3.347031219536755 | 2.3376e-08 | au |
|
| | Orbit Determination Parameters
Additional Information
|